• în România
  • Lista ţărilor
  • Pe 7 zile
  • Temperatura apei
  • Hartă satelitară
  • Meteo pe hartă
  • Widget-uri
  • user-avatar
    Intrare

    Meteo pe oră la Akulino

    Astăzi, 24 Aprilie, Marţi

    Timp Temperatura Precipitaţii Vânt Presiune Umiditate
    00:00 0°C° 0 mm 0 m/s 741 mmHg 63%
    01:00 0°C° 0 mm 0 m/s 741 mmHg 63%
    02:00 +1°C° 0 mm 1 m/s 741 mmHg 63%
    03:00 +1°C° 0 mm 1 m/s 740 mmHg 63%
    04:00 +1°C° 0 mm 1 m/s 740 mmHg 63%
    05:00 +1°C° 0 mm 1 m/s 740 mmHg 63%
    06:00 +3°C° 0 mm 1 m/s 740 mmHg 58%
    07:00 +4°C° 0 mm 2 m/s 740 mmHg 53%
    08:00 +6°C° 0 mm 2 m/s 740 mmHg 48%
    09:00 +7°C° 0 mm 2 m/s 740 mmHg 46%
    10:00 +9°C° 0 mm 2 m/s 739 mmHg 44%
    11:00 +10°C° 0 mm 3 m/s 739 mmHg 42%
    12:00 +11°C° 0 mm 3 m/s 739 mmHg 43%
    13:00 +11°C° 0 mm 3 m/s 738 mmHg 44%
    14:00 +12°C° 0 mm 4 m/s 738 mmHg 45%
    15:00 +12°C° 0 mm 3 m/s 738 mmHg 50%
    16:00 +11°C° 0 mm 3 m/s 737 mmHg 55%
    17:00 +11°C° 0 mm 3 m/s 737 mmHg 59%
    18:00 +10°C° 0,1 mm 3 m/s 737 mmHg 65%
    19:00 +9°C° 0,1 mm 3 m/s 737 mmHg 70%
    20:00 +8°C° 0,1 mm 3 m/s 736 mmHg 76%
    21:00 +7°C° 0,1 mm 3 m/s 736 mmHg 79%
    22:00 +7°C° 0,1 mm 3 m/s 736 mmHg 81%
    23:00 +7°C° 0,1 mm 3 m/s 736 mmHg 84%

    Mâine, 25 Aprilie, Miercuri

    Timp Temperatura Precipitaţii Vânt Presiune Umiditate
    00:00 +5°C° 0,1 mm 3 m/s 735 mmHg 87%
    01:00 +5°C° 0,1 mm 3 m/s 735 mmHg 89%
    02:00 +5°C° 0,1 mm 3 m/s 735 mmHg 91%
    03:00 +5°C° 0,2 mm 3 m/s 735 mmHg 92%
    04:00 +5°C° 0,2 mm 3 m/s 734 mmHg 93%
    05:00 +5°C° 0,2 mm 3 m/s 734 mmHg 94%
    06:00 +5°C° 0,1 mm 3 m/s 734 mmHg 91%
    07:00 +7°C° 0,1 mm 3 m/s 734 mmHg 87%
    08:00 +7°C° 0,1 mm 4 m/s 734 mmHg 83%
    09:00 +8°C° 0,1 mm 4 m/s 734 mmHg 78%
    10:00 +10°C° 0,1 mm 4 m/s 734 mmHg 73%
    11:00 +10°C° 0,1 mm 5 m/s 734 mmHg 68%
    12:00 +10°C° 0,3 mm 5 m/s 734 mmHg 70%
    13:00 +10°C° 0,3 mm 5 m/s 733 mmHg 72%
    14:00 +9°C° 0,3 mm 5 m/s 733 mmHg 74%
    15:00 +11°C° 0,2 mm 4 m/s 733 mmHg 71%
    16:00 +11°C° 0,2 mm 4 m/s 733 mmHg 68%
    17:00 +11°C° 0,2 mm 4 m/s 732 mmHg 66%
    18:00 +10°C° 0,1 mm 4 m/s 733 mmHg 70%
    19:00 +9°C° 0,1 mm 3 m/s 733 mmHg 74%
    20:00 +7°C° 0,1 mm 3 m/s 733 mmHg 78%
    21:00 +7°C° 0 mm 3 m/s 733 mmHg 81%
    22:00 +5°C° 0 mm 3 m/s 733 mmHg 84%
    23:00 +4°C° 0 mm 3 m/s 733 mmHg 87%

    Poimâine, 26 Aprilie, Joi

    Timp Temperatura Precipitaţii Vânt Presiune Umiditate
    00:00 +4°C° 0 mm 3 m/s 733 mmHg 88%
    01:00 +3°C° 0 mm 3 m/s 733 mmHg 89%
    02:00 +3°C° 0 mm 3 m/s 733 mmHg 90%
    03:00 +4°C° 0 mm 2 m/s 733 mmHg 90%
    04:00 +4°C° 0 mm 2 m/s 733 mmHg 91%
    05:00 +4°C° 0 mm 2 m/s 733 mmHg 91%
    06:00 +5°C° 0 mm 2 m/s 733 mmHg 86%
    07:00 +7°C° 0 mm 3 m/s 733 mmHg 81%
    08:00 +8°C° 0 mm 3 m/s 733 mmHg 77%
    09:00 +9°C° 0,2 mm 3 m/s 733 mmHg 73%
    10:00 +10°C° 0,2 mm 3 m/s 733 mmHg 69%
    11:00 +10°C° 0,2 mm 3 m/s 732 mmHg 66%
    12:00 +11°C° 0,1 mm 4 m/s 733 mmHg 60%
    13:00 +12°C° 0,1 mm 4 m/s 733 mmHg 55%
    14:00 +13°C° 0,1 mm 5 m/s 733 mmHg 49%
    15:00 +13°C° 0 mm 4 m/s 733 mmHg 50%
    16:00 +13°C° 0 mm 4 m/s 733 mmHg 50%
    17:00 +13°C° 0 mm 3 m/s 734 mmHg 50%
    18:00 +11°C° 0 mm 3 m/s 734 mmHg 57%
    19:00 +9°C° 0 mm 3 m/s 735 mmHg 63%
    20:00 +8°C° 0 mm 2 m/s 735 mmHg 70%
    21:00 +7°C° 0 mm 2 m/s 735 mmHg 73%
    22:00 +7°C° 0 mm 2 m/s 736 mmHg 76%
    23:00 +6°C° 0 mm 2 m/s 736 mmHg 79%

    27 Aprilie, Vineri

    Timp Temperatura Precipitaţii Vânt Presiune Umiditate
    00:00 +6°C° 0 mm 2 m/s 736 mmHg 81%
    01:00 +4°C° 0 mm 3 m/s 736 mmHg 82%
    02:00 +4°C° 0 mm 3 m/s 736 mmHg 84%
    03:00 +5°C° 0 mm 2 m/s 736 mmHg 85%
    04:00 +5°C° 0 mm 2 m/s 736 mmHg 85%
    05:00 +5°C° 0 mm 2 m/s 737 mmHg 86%
    06:00 +5°C° 0,1 mm 3 m/s 737 mmHg 82%
    07:00 +7°C° 0,1 mm 3 m/s 737 mmHg 79%
    08:00 +9°C° 0,1 mm 3 m/s 737 mmHg 75%
    09:00 +10°C° 0,1 mm 4 m/s 737 mmHg 68%
    10:00 +11°C° 0,1 mm 4 m/s 737 mmHg 60%
    11:00 +12°C° 0,1 mm 5 m/s 737 mmHg 53%
    12:00 +13°C° 0,1 mm 5 m/s 737 mmHg 50%
    13:00 +13°C° 0,1 mm 5 m/s 737 mmHg 46%
    14:00 +14°C° 0,1 mm 5 m/s 737 mmHg 43%
    15:00 +13°C° 0 mm 5 m/s 738 mmHg 45%
    16:00 +13°C° 0 mm 5 m/s 738 mmHg 48%
    17:00 +12°C° 0 mm 5 m/s 738 mmHg 50%
    18:00 +11°C° 0 mm 4 m/s 739 mmHg 58%
    19:00 +9°C° 0 mm 3 m/s 739 mmHg 65%
    20:00 +7°C° 0 mm 2 m/s 740 mmHg 73%
    21:00 +7°C° 0 mm 3 m/s 740 mmHg 76%
    22:00 +5°C° 0 mm 3 m/s 741 mmHg 79%
    23:00 +5°C° 0 mm 3 m/s 741 mmHg 82%

    28 Aprilie, Sâmbătă

    Timp Temperatura Precipitaţii Vânt Presiune Umiditate
    00:00 +4°C° 0 mm 3 m/s 742 mmHg 84%
    01:00 +4°C° 0 mm 3 m/s 742 mmHg 86%
    02:00 +3°C° 0 mm 3 m/s 742 mmHg 89%
    03:00 +3°C° 0 mm 3 m/s 743 mmHg 90%
    04:00 +3°C° 0 mm 3 m/s 743 mmHg 92%
    05:00 +3°C° 0 mm 3 m/s 744 mmHg 93%
    06:00 +4°C° 0 mm 3 m/s 744 mmHg 84%
    07:00 +7°C° 0 mm 3 m/s 744 mmHg 75%
    08:00 +9°C° 0 mm 3 m/s 745 mmHg 66%
    09:00 +10°C° 0 mm 4 m/s 745 mmHg 61%
    10:00 +11°C° 0 mm 4 m/s 745 mmHg 56%
    11:00 +12°C° 0 mm 4 m/s 745 mmHg 51%
    12:00 +12°C° 0 mm 4 m/s 745 mmHg 48%
    13:00 +13°C° 0 mm 4 m/s 745 mmHg 45%
    14:00 +13°C° 0 mm 4 m/s 745 mmHg 42%
    15:00 +13°C° 0 mm 4 m/s 745 mmHg 43%
    16:00 +13°C° 0 mm 3 m/s 745 mmHg 43%
    17:00 +13°C° 0 mm 3 m/s 745 mmHg 43%
    18:00 +11°C° 0 mm 3 m/s 745 mmHg 49%
    19:00 +10°C° 0 mm 2 m/s 745 mmHg 55%
    20:00 +8°C° 0 mm 2 m/s 745 mmHg 61%
    21:00 +8°C° 0 mm 2 m/s 745 mmHg 64%
    22:00 +7°C° 0 mm 2 m/s 744 mmHg 66%
    23:00 +7°C° 0 mm 3 m/s 744 mmHg 68%

    29 Aprilie, Duminică

    Timp Temperatura Precipitaţii Vânt Presiune Umiditate
    00:00 +7°C° 0 mm 3 m/s 744 mmHg 69%
    01:00 +7°C° 0 mm 3 m/s 744 mmHg 70%
    02:00 +7°C° 0 mm 4 m/s 743 mmHg 71%
    03:00 +7°C° 0,8 mm 4 m/s 743 mmHg 78%
    04:00 +7°C° 0,8 mm 3 m/s 743 mmHg 84%
    05:00 +7°C° 0,8 mm 3 m/s 743 mmHg 91%
    06:00 +8°C° 0,3 mm 3 m/s 743 mmHg 90%
    07:00 +8°C° 0,3 mm 3 m/s 743 mmHg 90%
    08:00 +8°C° 0,3 mm 3 m/s 743 mmHg 89%
    09:00 +10°C° 0 mm 3 m/s 743 mmHg 82%
    10:00 +11°C° 0 mm 3 m/s 743 mmHg 74%
    11:00 +12°C° 0 mm 3 m/s 743 mmHg 67%
    12:00 +13°C° 0 mm 3 m/s 743 mmHg 59%
    13:00 +14°C° 0 mm 3 m/s 743 mmHg 52%
    14:00 +14°C° 0 mm 3 m/s 743 mmHg 45%
    15:00 +14°C° 0 mm 3 m/s 743 mmHg 45%
    16:00 +14°C° 0 mm 3 m/s 743 mmHg 45%
    17:00 +14°C° 0 mm 3 m/s 743 mmHg 45%
    18:00 +13°C° 0 mm 2 m/s 743 mmHg 51%
    19:00 +10°C° 0 mm 2 m/s 743 mmHg 57%
    20:00 +9°C° 0 mm 1 m/s 744 mmHg 63%
    21:00 +8°C° 0 mm 1 m/s 744 mmHg 66%
    22:00 +8°C° 0 mm 1 m/s 744 mmHg 69%
    23:00 +7°C° 0 mm 1 m/s 745 mmHg 71%
    Arată mai mult